Flag for U.S.A. Weather past 2 weeks in Monticello, Kentucky, U.S.A.

Now
65 °F

Sunny.


Feels Like: 65 °F
Forecast: 37 / 69 °F
Wind: 10 mph from Northeast

Location: London-Corbin Airport-Magee Field

Current Time: Apr 1, 2015 at 2:18:51 PM

Latest Report: Apr 1, 2015 at 1:53 PM


Visibility: 10 mi

Pressure: 30.13 "Hg

Humidity: 22%

Dew point: 25 °F

Location of MonticelloLocation

Historic Weather in Monticello — Graph

°F

Monticello temperature yesterday

Maximum temperature yesterday: 76 °F (at 2:53 PM)
Minimum temperature yesterday: 36 °F (at 5:53 AM)
Average temperature yesterday: 57 °F

Past Weeks' High & Low Weather Summary

 TemperatureHumidityPressure
High77 °F (Mar 25, 5:53 PM)86% (Mar 19, 8:53 PM)30.40 "Hg (Mar 19, 8:53 PM)
Low21 °F (Mar 29, 6:53 AM)13% (Mar 29, 5:53 PM)29.76 "Hg (Mar 26, 1:53 PM)
Average50 °F53%30.08 "Hg
* Reported Mar 17 12:53 PM — Apr 1 12:53 PM, Monticello, Weather by CustomWeather, © 2015

Note: Actual official high and low records may vary slightly from our data, if they occured in-between our weather recording intervals... More about our weather records

Advertising

Monticello weather history for previous 24 hours

 ConditionsComfort  
Time TempWeatherWind HumidityBarometerVisibility
12:53 PM
Wed, Apr 1
61 °FSunny.6 mph23%30.13 "Hg10 mi
11:53 AM58 °FSunny.N/A28%30.14 "Hg10 mi
10:53 AM55 °FSunny.7 mph42%30.14 "Hg10 mi
9:53 AM51 °FSunny.N/A50%30.13 "Hg10 mi
8:53 AM47 °FSunny.No wind66%30.13 "Hg10 mi
7:53 AM40 °FClear.No wind77%30.09 "Hg10 mi
6:53 AM41 °FClear.No wind74%30.06 "Hg10 mi
5:53 AM44 °FClear.No wind65%30.03 "Hg10 mi
4:53 AM44 °FClear.5 mph68%30.01 "Hg10 mi
3:53 AM46 °FClear.7 mph61%29.99 "Hg10 mi
2:53 AM48 °FClear.6 mph54%29.98 "Hg10 mi
1:53 AM47 °FClear.6 mph54%29.98 "Hg10 mi
12:53 AM54 °FClear.No wind38%29.97 "Hg10 mi
11:53 PM
Tue, Mar 31
55 °FClear.6 mph39%29.96 "Hg10 mi
10:53 PM59 °FClear.7 mph33%29.93 "Hg10 mi
9:53 PM63 °FClear.15 mph29%29.90 "Hg10 mi
8:53 PM67 °FSunny.9 mph27%29.87 "Hg10 mi
7:53 PM70 °FSunny.14 mph23%29.83 "Hg10 mi
6:53 PM73 °FSunny.14 mph24%29.82 "Hg10 mi
5:53 PM74 °FScattered clouds.16 mph28%29.81 "Hg10 mi
4:53 PM75 °FScattered clouds.17 mph24%29.80 "Hg10 mi
3:53 PM76 °FScattered clouds.26 mph24%29.81 "Hg10 mi
2:53 PM76 °FSunny.17 mph25%29.83 "Hg10 mi
Weather by CustomWeather, © 2015

See weather overviewHow to use our weather pages